Date String (YYYY-MM-DD hh:mm:ss) UTC,Instrument flags,absolute air pressure of the measurement (hPa),sample flow rate (lpm),inlet stack bypass flow (lpm),air temperature of the measurement (°C),ambient temperature measured by the external sensor (°C),aerosol sample conditioner tube jacket temperature (°C),OPC LED temperature (°C),internal box temperature (°C),relative humidity of the measurement (%),span deviation,mass concentration of particles derived from Lorenz-Mie calculation of OPC scattering (μg/m³),mass concentration of particles derived from Lorenz-Mie calculation of OPC scattering (μg/m³),mass concentration of particles derived from Lorenz-Mie calculation of OPC scattering (μg/m³)
DateTimeUTC,F1_M11,P_M11,Q1_M11,Q2_M11,T1_M11,T2_M11,T3_M11,T4_M11,T5_M11,U1_M11,ZSPAN_M11,X0_M11,X2_M11,X1_M11
2023-08-08 02:00:00,SystemResetWarning,0833.2,5.00,000.00,029.6,026.8,000.0,038.1,030.9,31.1,0002.3,0011.44,0005.88,0004.90
2023-08-08 02:01:00,SystemResetWarning,0833.2,5.00,000.00,029.6,027.2,000.0,038.1,031.0,31.0,0002.3,0011.60,0005.88,0004.89
2023-08-08 02:02:00,SystemResetWarning,0833.3,5.00,000.00,029.6,027.4,000.0,038.1,031.0,31.0,0002.1,0011.69,0005.92,0004.90
2023-08-08 02:03:00,SystemResetWarning,0833.3,4.99,000.00,029.6,027.7,000.0,038.2,031.1,31.0,0002.4,0011.72,0005.92,0004.90
2023-08-08 02:04:00,SystemResetWarning,0833.4,5.00,000.00,029.7,027.8,000.0,038.2,031.1,30.9,0002.4,0012.00,0005.91,0004.90
2023-08-08 02:05:00,SystemResetWarning,0833.4,4.99,000.00,029.7,028.0,000.0,038.2,031.2,31.0,0002.5,0013.29,0005.90,0004.89
2023-08-08 02:06:00,SystemResetWarning,0833.4,5.00,000.00,029.7,028.1,000.0,038.2,031.2,31.0,0002.6,0013.43,0005.89,0004.89
2023-08-08 02:07:00,SystemResetWarning,0833.4,5.01,000.00,029.7,028.1,000.0,038.2,031.2,31.2,0002.3,0013.75,0005.86,0004.87
2023-08-08 02:08:00,SystemResetWarning,0833.4,4.98,000.00,029.7,026.7,000.0,038.1,031.1,31.4,0002.2,0014.72,0005.87,0004.84
2023-08-08 02:09:00,SystemResetWarning,0833.4,5.01,000.00,029.7,025.5,000.0,037.9,030.8,31.5,0002.6,0015.32,0005.83,0004.82
2023-08-08 02:10:00,SystemResetWarning,0833.4,5.01,000.00,029.6,025.4,000.0,037.9,030.6,31.5,0002.8,0015.53,0005.80,0004.80
2023-08-08 02:11:00,SystemResetWarning,0833.4,5.01,000.00,029.5,025.7,000.0,037.9,030.5,31.7,0002.5,0015.42,0005.77,0004.80
2023-08-08 02:12:00,SystemResetWarning,0833.4,5.00,000.00,029.4,026.1,000.0,038.0,030.6,31.5,0002.2,0015.05,0005.73,0004.79
2023-08-08 02:13:00,SystemResetWarning,0833.4,5.00,000.00,029.4,026.5,000.0,038.0,030.7,31.5,0002.4,0014.86,0005.67,0004.78
2023-08-08 02:14:00,SystemResetWarning,0833.4,5.00,000.00,029.4,026.8,000.0,038.0,030.8,31.7,0000.0,0014.72,0005.63,0004.78
2023-08-08 02:15:00,SystemResetWarning,0833.4,5.01,000.00,029.4,027.2,000.0,038.0,030.9,31.6,0000.0,0014.59,0005.60,0004.77
2023-08-08 02:16:00,SystemResetWarning,0833.4,4.99,000.00,029.5,027.4,000.0,038.0,031.0,31.5,0001.2,0013.38,0005.62,0004.78
2023-08-08 02:17:00,SystemResetWarning,0833.4,4.99,000.00,029.5,027.6,000.0,038.0,031.0,31.8,0000.7,0013.96,0005.62,0004.77
2023-08-08 02:18:00,SystemResetWarning,0833.4,5.00,000.00,029.5,027.8,000.0,038.0,031.1,32.0,0000.8,0013.65,0005.64,0004.78
2023-08-08 02:19:00,SystemResetWarning,0833.4,5.00,000.00,029.5,028.0,000.0,038.0,031.1,32.1,0002.3,0012.43,0005.66,0004.81
2023-08-08 02:20:00,SystemResetWarning,0833.4,5.01,000.00,029.6,028.1,000.0,038.0,031.2,32.0,0002.0,0011.29,0005.71,0004.84
2023-08-08 02:21:00,SystemResetWarning,0833.3,5.01,000.00,029.6,028.1,000.0,038.0,031.2,32.0,0002.0,0011.19,0005.74,0004.85
2023-08-08 02:22:00,SystemResetWarning,0833.2,4.98,000.00,029.6,026.5,000.0,037.9,030.9,32.2,0001.4,0011.57,0005.83,0004.86
2023-08-08 02:23:00,SystemResetWarning,0833.2,5.01,000.00,029.5,025.4,000.0,037.8,030.7,32.4,0001.5,0011.73,0005.89,0004.88
2023-08-08 02:24:00,SystemResetWarning,0833.2,5.01,000.00,029.4,025.4,000.0,037.8,030.5,32.9,0000.9,0012.52,0005.95,0004.89
2023-08-08 02:25:00,SystemResetWarning,0833.2,4.99,000.00,029.3,025.7,000.0,037.8,030.5,33.0,0000.7,0012.65,0005.97,0004.90
2023-08-08 02:26:00,SystemResetWarning,0833.2,5.00,000.00,029.3,026.1,000.0,037.8,030.6,33.1,0000.5,0012.58,0006.02,0004.90
2023-08-08 02:27:00,SystemResetWarning,0833.2,5.01,000.00,029.3,026.5,000.0,037.8,030.7,33.3,0000.5,0012.40,0006.01,0004.90
2023-08-08 02:28:00,SystemResetWarning,0833.2,5.00,000.00,029.3,026.8,000.0,037.9,030.8,33.2,0000.7,0011.69,0006.01,0004.91
2023-08-08 02:29:00,SystemResetWarning,0833.1,5.00,000.00,029.3,027.2,000.0,037.9,030.8,33.0,0000.4,0011.75,0005.98,0004.90
2023-08-08 02:30:00,SystemResetWarning,0833.1,5.00,000.00,029.3,027.4,000.0,037.9,030.9,32.9,-000.3,0012.22,0005.96,0004.90
2023-08-08 02:31:00,SystemResetWarning,0833.2,5.01,000.00,029.3,027.6,000.0,037.9,031.0,32.4,-000.8,0012.91,0005.94,0004.89
2023-08-08 02:32:00,SystemResetWarning,0833.1,5.00,000.00,029.4,027.8,000.0,037.9,031.0,32.0,-000.7,0014.01,0005.96,0004.90
2023-08-08 02:33:00,SystemResetWarning,0833.1,4.99,000.00,029.4,028.0,000.0,037.9,031.1,31.5,-000.2,0013.99,0005.92,0004.90
2023-08-08 02:34:00,SystemResetWarning,0833.0,4.99,000.00,029.5,028.1,000.0,037.9,031.1,31.2,0000.1,0014.09,0005.90,0004.90
2023-08-08 02:35:00,SystemResetWarning,0833.3,4.99,000.00,029.5,027.9,000.0,037.9,031.1,31.2,0000.7,0013.73,0005.91,0004.91
2023-08-08 02:36:00,SystemResetWarning,0832.8,5.00,000.00,029.5,026.3,000.0,037.8,030.8,31.3,0000.9,0013.82,0005.95,0004.93
2023-08-08 02:37:00,SystemResetWarning,0832.7,5.00,000.00,029.4,025.3,000.0,037.7,030.6,31.4,0000.8,0013.81,0005.96,0004.93
2023-08-08 02:38:00,SystemResetWarning,0832.7,5.02,000.00,029.3,025.4,000.0,037.7,030.4,31.5,0000.3,0014.02,0005.94,0004.92
2023-08-08 02:39:00,SystemResetWarning,0832.7,5.00,000.00,029.2,025.7,000.0,037.7,030.4,31.8,0000.2,0014.02,0005.93,0004.93
2023-08-08 02:40:00,SystemResetWarning,0832.8,5.00,000.00,029.2,026.1,000.0,037.7,030.5,31.9,0000.0,0014.45,0005.97,0004.94
2023-08-08 02:41:00,SystemResetWarning,0832.8,5.01,000.00,029.2,026.5,000.0,037.7,030.6,31.7,0000.0,0014.18,0006.00,0004.95
2023-08-08 02:42:00,SystemResetWarning,0832.9,5.00,000.00,029.2,026.9,000.0,037.8,030.7,31.7,0000.0,0013.81,0006.04,0004.94
2023-08-08 02:43:00,SystemResetWarning,0832.9,5.00,000.00,029.2,027.2,000.0,037.8,030.8,31.7,0000.0,0012.63,0006.00,0004.93
2023-08-08 02:44:00,SystemResetWarning,0833.0,5.00,000.00,029.2,027.4,000.0,037.8,030.9,31.8,0000.0,0012.94,0005.99,0004.94
2023-08-08 02:45:00,SystemResetWarning,0832.9,5.00,000.00,029.3,027.6,000.0,037.8,030.9,31.9,0000.2,0012.76,0005.95,0004.94
2023-08-08 02:46:00,SystemResetWarning,0833.1,5.00,000.00,029.3,027.8,000.0,037.8,031.0,31.9,0001.8,0012.57,0005.94,0004.96
2023-08-08 02:47:00,SystemResetWarning,0833.0,5.00,000.00,029.3,027.9,000.0,037.8,031.0,31.9,0001.6,0012.94,0005.91,0004.97
2023-08-08 02:48:00,SystemResetWarning,0832.9,4.99,000.00,029.4,028.1,000.0,037.8,031.0,31.8,0001.5,0014.81,0005.92,0004.98
2023-08-08 02:49:00,SystemResetWarning,0833.2,5.00,000.00,029.4,028.2,000.0,037.9,031.1,31.6,0001.4,0014.93,0005.93,0004.99
2023-08-08 02:50:00,SystemResetWarning,0833.0,5.00,000.00,029.4,028.3,000.0,037.9,031.1,31.5,0001.0,0014.97,0005.95,0005.01
2023-08-08 02:51:00,SystemResetWarning,0832.9,5.00,000.00,029.5,028.0,000.0,037.9,031.1,31.5,0001.5,0014.43,0005.94,0005.01
2023-08-08 02:52:00,SystemResetWarning,0833.0,5.00,000.00,029.4,026.3,000.0,037.8,030.9,31.5,0001.7,0014.55,0005.95,0005.02
2023-08-08 02:53:00,SystemResetWarning,0833.0,5.01,000.00,029.4,025.4,000.0,037.6,030.7,31.4,0000.4,0014.47,0005.95,0005.03
2023-08-08 02:54:00,SystemResetWarning,0833.1,5.01,000.00,029.3,025.4,000.0,037.6,030.5,31.8,0001.2,0014.91,0005.98,0005.05
2023-08-08 02:55:00,SystemResetWarning,0833.0,4.99,000.00,029.2,025.7,000.0,037.7,030.4,32.2,0001.8,0014.35,0006.02,0005.05
2023-08-08 02:56:00,SystemResetWarning,0832.9,5.00,000.00,029.1,026.1,000.0,037.7,030.6,32.3,0000.9,0015.02,0006.07,0005.05
2023-08-08 02:57:00,SystemResetWarning,0833.0,5.00,000.00,029.1,026.5,000.0,037.7,030.7,32.3,0000.0,0015.55,0006.09,0005.04
2023-08-08 02:58:00,SystemResetWarning,0832.9,5.00,000.00,029.2,026.9,000.0,037.7,030.7,32.8,0000.0,0015.43,0006.10,0005.02
2023-08-08 02:59:00,SystemResetWarning,0832.9,5.00,000.00,029.2,027.2,000.0,037.7,030.8,33.6,0000.0,0013.46,0006.06,0005.01
